| time (UTC) | temp F | wind direction | speed knots | gust knots | rain 1hr in | rain 24hr in | rain mn in | humidity % | barometer mb |
| 20260504100405 | 34 | 325 | 0.0 | 0.0 | 0.00 | 0.00 | 0.00 | 88 | 1014.9 |
| 20260504081906 | 34 | 302 | 0.0 | 0.0 | 0.00 | 0.00 | 0.00 | 87 | 1015.5 |
| 20260504081407 | 34 | 301 | 0.0 | 0.0 | 0.00 | 0.00 | 0.00 | 87 | 1015.3 |
| 20260504080906 | 34 | 302 | 0.0 | 0.0 | 0.00 | 0.00 | 0.00 | 86 | 1015.4 |
| 20260504080406 | 34 | 301 | 0.0 | 0.0 | 0.00 | 0.00 | 0.00 | 85 | 1015.4 |
| 20260504070406 | 34 | 0 | 0.0 | 0.0 | 0.00 | 0.00 | 0.00 | 87 | 1015.6 |
| 20260504050406 | 36 | 131 | 0.0 | 0.0 | 0.00 | 0.00 | 0.00 | 84 | 1015.8 |
| 20260504045908 | 36 | 131 | 0.0 | 0.0 | 0.00 | 0.00 | 0.00 | 83 | 1015.8 |
| 20260504045407 | 36 | 131 | 0.0 | 0.0 | 0.00 | 0.00 | 0.00 | 84 | 1015.8 |
| 20260504044907 | 37 | 131 | 0.0 | 0.0 | 0.00 | 0.00 | 0.00 | 82 | 1015.9 |
| 20260504044406 | 37 | 131 | 0.0 | 0.0 | 0.00 | 0.00 | 0.00 | 82 | 1015.8 |
| 20260504043906 | 37 | 131 | 0.0 | 0.0 | 0.00 | 0.00 | 0.00 | 81 | 1015.8 |
| 20260504043406 | 37 | 131 | 0.0 | 0.0 | 0.00 | 0.00 | 0.00 | 80 | 1015.8 |
| 20260504042906 | 38 | 131 | 0.0 | 0.0 | 0.00 | 0.00 | 0.00 | 79 | 1015.7 |
| 20260504042406 | 39 | 131 | 0.0 | 0.0 | 0.00 | 0.00 | 0.00 | 78 | 1015.7 |
| 20260504041906 | 39 | 131 | 0.0 | 0.0 | 0.00 | 0.00 | 0.00 | 78 | 1015.7 |
| 20260504041406 | 39 | 131 | 0.0 | 0.0 | 0.00 | 0.00 | 0.00 | 77 | 1015.7 |
| 20260504040906 | 39 | 131 | 0.0 | 0.0 | 0.00 | 0.00 | 0.00 | 76 | 1015.7 |
| 20260504040407 | 40 | 131 | 0.0 | 0.0 | 0.00 | 0.00 | 0.00 | 74 | 1015.7 |
| 20260504035906 | 41 | 131 | 0.0 | 0.0 | 0.00 | 0.00 | 0.00 | 73 | 1015.7 |
| 20260504035406 | 41 | 131 | 0.0 | 0.0 | 0.00 | 0.00 | 0.00 | 71 | 1015.6 |
| 20260504034907 | 40 | 131 | 0.0 | 0.0 | 0.00 | 0.00 | 0.00 | 75 | 1015.6 |
| 20260504034406 | 40 | 131 | 0.0 | 0.0 | 0.00 | 0.00 | 0.00 | 78 | 1015.7 |
| 20260504033906 | 40 | 131 | 0.0 | 0.0 | 0.00 | 0.00 | 0.00 | 78 | 1015.7 |
| 20260504033406 | 40 | 131 | 0.0 | 0.0 | 0.00 | 0.00 | 0.00 | 78 | 1015.8 |
| 20260504032910 | 40 | 131 | 0.0 | 0.0 | 0.00 | 0.00 | 0.00 | 77 | 1015.7 |
| 20260504032408 | 40 | 131 | 0.0 | 0.0 | 0.00 | 0.00 | 0.00 | 77 | 1015.7 |
| 20260504031907 | 40 | 131 | 0.0 | 0.0 | 0.00 | 0.00 | 0.00 | 78 | 1015.7 |
| 20260504031406 | 40 | 131 | 0.0 | 0.0 | 0.00 | 0.00 | 0.00 | 76 | 1015.6 |
| 20260504030906 | 40 | 131 | 0.0 | 0.0 | 0.00 | 0.00 | 0.00 | 74 | 1015.4 |
| 20260504030406 | 41 | 131 | 0.0 | 0.0 | 0.00 | 0.00 | 0.00 | 74 | 1015.3 |
| 20260504025906 | 42 | 131 | 0.0 | 0.0 | 0.00 | 0.00 | 0.00 | 75 | 1015.2 |
| 20260504025406 | 42 | 131 | 0.0 | 0.0 | 0.00 | 0.00 | 0.00 | 72 | 1015.3 |
| 20260504024906 | 42 | 131 | 0.0 | 0.0 | 0.00 | 0.00 | 0.00 | 70 | 1015.3 |
| 20260504024406 | 43 | 131 | 0.0 | 0.0 | 0.00 | 0.00 | 0.00 | 70 | 1015.3 |
| 20260504023906 | 43 | 131 | 0.0 | 0.0 | 0.00 | 0.00 | 0.00 | 70 | 1015.2 |
| 20260504023406 | 43 | 131 | 0.0 | 0.0 | 0.00 | 0.00 | 0.00 | 71 | 1015.3 |
| 20260504022911 | 43 | 131 | 0.0 | 0.0 | 0.00 | 0.00 | 0.00 | 71 | 1015.2 |
| 20260504022500 | 43 | 131 | 0.0 | 0.0 | 0.00 | 0.00 | 0.00 | 71 | 1015.2 |
| 20260504022407 | 43 | 131 | 0.0 | 0.0 | 0.00 | 0.00 | 0.00 | 71 | 1015.2 |
| 20260504021906 | 43 | 131 | 0.0 | 0.0 | 0.00 | 0.00 | 0.00 | 71 | 1015.1 |
| 20260504021407 | 43 | 131 | 0.0 | 0.0 | 0.00 | 0.00 | 0.00 | 68 | 1015.1 |
| 20260504020907 | 44 | 131 | 0.0 | 0.0 | 0.00 | 0.00 | 0.00 | 67 | 1015.1 |
| 20260504020409 | 44 | 131 | 0.0 | 0.0 | 0.00 | 0.00 | 0.00 | 65 | 1015.1 |
| 20260504015908 | 45 | 131 | 0.0 | 0.0 | 0.00 | 0.00 | 0.00 | 67 | 1015.1 |
| 20260504015408 | 46 | 131 | 0.0 | 0.0 | 0.00 | 0.00 | 0.00 | 66 | 1015.0 |
| 20260504014908 | 48 | 131 | 0.0 | 0.0 | 0.00 | 0.00 | 0.00 | 56 | 1014.9 |
| 20260504014408 | 49 | 131 | 0.0 | 0.0 | 0.00 | 0.00 | 0.00 | 55 | 1014.9 |
| 20260504013907 | 50 | 131 | 0.0 | 0.9 | 0.00 | 0.00 | 0.00 | 52 | 1015.0 |
| 20260504013407 | 49 | 141 | 0.0 | 0.0 | 0.00 | 0.00 | 0.00 | 50 | 1014.9 |
| 20260504012907 | 48 | 232 | 0.0 | 0.0 | 0.00 | 0.00 | 0.00 | 52 | 1014.9 |
| 20260504012407 | 48 | 231 | 0.0 | 0.0 | 0.00 | 0.00 | 0.00 | 51 | 1014.8 |
| 20260504011907 | 49 | 231 | 0.0 | 0.0 | 0.00 | 0.00 | 0.00 | 55 | 1014.8 |
| 20260504011408 | 49 | 232 | 0.0 | 0.0 | 0.00 | 0.00 | 0.00 | 51 | 1014.8 |
| 20260504010907 | 50 | 232 | 0.0 | 0.0 | 0.00 | 0.00 | 0.00 | 47 | 1014.7 |
| 20260504010407 | 51 | 232 | 0.0 | 0.0 | 0.00 | 0.00 | 0.00 | 46 | 1014.7 |
| 20260504005910 | 52 | 232 | 0.0 | 0.0 | 0.00 | 0.00 | 0.00 | 42 | 1014.8 |
| 20260504005407 | 52 | 232 | 0.0 | 0.0 | 0.00 | 0.00 | 0.00 | 41 | 1014.8 |
| 20260504004907 | 53 | 232 | 0.0 | 0.0 | 0.00 | 0.00 | 0.00 | 42 | 1014.8 |
| 20260504004407 | 53 | 232 | 0.0 | 0.0 | 0.00 | 0.00 | 0.00 | 41 | 1014.7 |
| 20260504003907 | 54 | 232 | 0.0 | 0.9 | 0.00 | 0.00 | 0.00 | 45 | 1014.7 |
| 20260504003407 | 54 | 213 | 0.0 | 1.7 | 0.00 | 0.00 | 0.00 | 40 | 1014.6 |
| 20260504002907 | 55 | 230 | 0.0 | 0.9 | 0.00 | 0.00 | 0.00 | 38 | 1014.6 |
| 20260504002407 | 55 | 188 | 0.0 | 0.9 | 0.00 | 0.00 | 0.00 | 38 | 1014.6 |
| 20260504001907 | 56 | 230 | 0.0 | 0.0 | 0.00 | 0.00 | 0.00 | 37 | 1014.6 |
| 20260504001407 | 56 | 234 | 0.0 | 0.0 | 0.00 | 0.00 | 0.00 | 37 | 1014.6 |
| 20260504000907 | 56 | 224 | 0.0 | 0.0 | 0.00 | 0.00 | 0.00 | 37 | 1014.4 |
| 20260504000408 | 57 | 257 | 0.0 | 1.7 | 0.00 | 0.00 | 0.00 | 36 | 1014.3 |
| 20260503235907 | 57 | 234 | 0.9 | 1.7 | 0.00 | 0.00 | 0.00 | 36 | 1014.3 |
| 20260503235407 | 57 | 254 | 2.6 | 3.5 | 0.00 | 0.00 | 0.00 | 36 | 1014.3 |
| 20260503234907 | 58 | 270 | 2.6 | 3.5 | 0.00 | 0.00 | 0.00 | 36 | 1014.3 |
| 20260503234407 | 58 | 254 | 2.6 | 3.5 | 0.00 | 0.00 | 0.00 | 35 | 1014.2 |
| 20260503233907 | 58 | 262 | 4.3 | 4.3 | 0.00 | 0.00 | 0.00 | 34 | 1014.1 |
| 20260503233407 | 58 | 252 | 5.2 | 7.8 | 0.00 | 0.00 | 0.00 | 34 | 1014.1 |
| 20260503232911 | 59 | 246 | 5.2 | 7.8 | 0.00 | 0.00 | 0.00 | 34 | 1014.1 |
| 20260503232407 | 59 | 243 | 4.3 | 10.4 | 0.00 | 0.00 | 0.00 | 34 | 1014.1 |
| 20260503231907 | 59 | 275 | 2.6 | 10.4 | 0.00 | 0.00 | 0.00 | 33 | 1014.0 |
| 20260503231407 | 59 | 223 | 4.3 | 5.2 | 0.00 | 0.00 | 0.00 | 34 | 1013.9 |
| 20260503230907 | 59 | 262 | 6.1 | 9.6 | 0.00 | 0.00 | 0.00 | 35 | 1013.8 |
| 20260503230407 | 60 | 271 | 6.1 | 10.4 | 0.00 | 0.00 | 0.00 | 33 | 1013.8 |
| 20260503225910 | 60 | 267 | 6.1 | 10.4 | 0.00 | 0.00 | 0.00 | 32 | 1013.8 |
| 20260503225407 | 59 | 267 | 6.1 | 8.7 | 0.00 | 0.00 | 0.00 | 32 | 1013.9 |
| 20260503224907 | 59 | 271 | 7.0 | 12.2 | 0.00 | 0.00 | 0.00 | 32 | 1013.9 |
| 20260503224407 | 59 | 270 | 8.7 | 13.0 | 0.00 | 0.00 | 0.00 | 34 | 1013.9 |
| 20260503223907 | 60 | 261 | 8.7 | 16.5 | 0.00 | 0.00 | 0.00 | 32 | 1013.9 |
| 20260503223407 | 60 | 251 | 7.0 | 9.6 | 0.00 | 0.00 | 0.00 | 33 | 1014.0 |
| 20260503222907 | 60 | 288 | 6.1 | 9.6 | 0.00 | 0.00 | 0.00 | 34 | 1014.1 |
| 20260503222407 | 60 | 276 | 7.0 | 10.4 | 0.00 | 0.00 | 0.00 | 34 | 1014.0 |
| 20260503221907 | 60 | 292 | 8.7 | 11.3 | 0.00 | 0.00 | 0.00 | 33 | 1014.1 |
| 20260503221407 | 60 | 269 | 8.7 | 12.2 | 0.00 | 0.00 | 0.00 | 33 | 1014.0 |
| 20260503220907 | 60 | 259 | 7.8 | 17.4 | 0.00 | 0.00 | 0.00 | 32 | 1014.1 |
| 20260503220407 | 60 | 237 | 6.1 | 8.7 | 0.00 | 0.00 | 0.00 | 35 | 1014.2 |
| 20260503215910 | 60 | 271 | 7.0 | 11.3 | 0.00 | 0.00 | 0.00 | 32 | 1014.2 |
| 20260503215407 | 60 | 233 | 7.8 | 12.2 | 0.00 | 0.00 | 0.00 | 33 | 1014.2 |
| 20260503214907 | 60 | 242 | 9.6 | 12.2 | 0.00 | 0.00 | 0.00 | 33 | 1014.2 |
| 20260503214408 | 60 | 261 | 8.7 | 13.0 | 0.00 | 0.00 | 0.00 | 33 | 1014.2 |
| 20260503213907 | 59 | 273 | 8.7 | 14.8 | 0.00 | 0.00 | 0.00 | 33 | 1014.1 |
| 20260503213407 | 59 | 294 | 9.6 | 13.9 | 0.00 | 0.00 | 0.00 | 32 | 1014.1 |
| 20260503212907 | 60 | 263 | 10.4 | 14.8 | 0.00 | 0.00 | 0.00 | 33 | 1014.1 |
| 20260503212407 | 59 | 276 | 9.6 | 14.8 | 0.00 | 0.00 | 0.00 | 34 | 1014.0 |
| 20260503211907 | 59 | 242 | 7.0 | 13.9 | 0.00 | 0.00 | 0.00 | 36 | 1014.0 |
| 20260503211503 | 59 | 261 | 6.1 | 11.3 | 0.00 | 0.00 | 0.00 | 34 | 1014.0 |
| 20260503211407 | 59 | 261 | 6.1 | 11.3 | 0.00 | 0.00 | 0.00 | 34 | 1014.0 |
| 20260503210407 | 59 | 281 | 7.8 | 12.2 | 0.00 | 0.00 | 0.00 | 33 | 1013.9 |
| 20260503205910 | 59 | 281 | 7.8 | 11.3 | 0.00 | 0.00 | 0.00 | 35 | 1014.0 |
| 20260503205407 | 59 | 279 | 8.7 | 11.3 | 0.00 | 0.00 | 0.00 | 34 | 1013.9 |
| 20260503204907 | 59 | 269 | 9.6 | 14.8 | 0.00 | 0.00 | 0.00 | 37 | 1014.0 |
| 20260503204407 | 59 | 302 | 8.7 | 13.9 | 0.00 | 0.00 | 0.00 | 33 | 1014.0 |
| 20260503203907 | 59 | 279 | 10.4 | 14.8 | 0.00 | 0.00 | 0.00 | 32 | 1014.0 |
| 20260503203407 | 59 | 262 | 7.8 | 15.6 | 0.00 | 0.00 | 0.00 | 33 | 1013.9 |
| 20260503202910 | 59 | 236 | 7.0 | 15.6 | 0.00 | 0.00 | 0.00 | 35 | 1014.0 |
| 20260503202507 | 58 | 300 | 4.3 | 11.3 | 0.00 | 0.00 | 0.00 | 36 | 1014.1 |
| 20260503202408 | 58 | 300 | 4.3 | 11.3 | 0.00 | 0.00 | 0.00 | 36 | 1014.1 |
| 20260503201907 | 58 | 286 | 7.0 | 7.8 | 0.00 | 0.00 | 0.00 | 32 | 1014.2 |
| 20260503201407 | 58 | 295 | 9.6 | 13.9 | 0.00 | 0.00 | 0.00 | 35 | 1014.3 |
| 20260503200907 | 59 | 238 | 9.6 | 17.4 | 0.00 | 0.00 | 0.00 | 34 | 1014.3 |
| 20260503200407 | 59 | 229 | 7.0 | 13.0 | 0.00 | 0.00 | 0.00 | 34 | 1014.3 |
| 20260503195910 | 59 | 273 | 8.7 | 12.2 | 0.00 | 0.00 | 0.00 | 35 | 1014.4 |
| 20260503195457 | 58 | 289 | 10.4 | 18.2 | 0.00 | 0.00 | 0.00 | 32 | 1014.5 |
| 20260503195407 | 58 | 289 | 10.4 | 18.2 | 0.00 | 0.00 | 0.00 | 32 | 1014.5 |
| 20260503194907 | 59 | 293 | 10.4 | 16.5 | 0.00 | 0.00 | 0.00 | 33 | 1014.4 |
| 20260503194407 | 58 | 267 | 11.3 | 18.2 | 0.00 | 0.00 | 0.00 | 36 | 1014.6 |
| 20260503193907 | 58 | 281 | 12.2 | 18.2 | 0.00 | 0.00 | 0.00 | 33 | 1014.7 |
| 20260503193407 | 59 | 286 | 9.6 | 28.7 | 0.00 | 0.00 | 0.00 | 33 | 1014.7 |
| 20260503192910 | 59 | 237 | 6.1 | 15.6 | 0.00 | 0.00 | 0.00 | 35 | 1014.7 |
| 20260503192407 | 58 | 321 | 7.0 | 8.7 | 0.00 | 0.00 | 0.00 | 33 | 1014.8 |
| 20260503191907 | 57 | 300 | 8.7 | 12.2 | 0.00 | 0.00 | 0.00 | 30 | 1015.0 |
| 20260503191451 | 58 | 305 | 7.0 | 17.4 | 0.00 | 0.00 | 0.00 | 30 | 1015.0 |
| 20260503191408 | 58 | 305 | 7.0 | 17.4 | 0.00 | 0.00 | 0.00 | 30 | 1015.0 |
| 20260503190907 | 59 | 316 | 6.1 | 12.2 | 0.00 | 0.00 | 0.00 | 39 | 1014.9 |
| 20260503190407 | 58 | 223 | 7.8 | 9.6 | 0.00 | 0.00 | 0.00 | 36 | 1014.9 |
| 20260503185908 | 57 | 256 | 8.7 | 14.8 | 0.00 | 0.00 | 0.00 | 31 | 1015.1 |
| 20260503185408 | 57 | 272 | 6.1 | 11.3 | 0.00 | 0.00 | 0.00 | 33 | 1015.1 |
| 20260503184908 | 57 | 277 | 7.0 | 7.8 | 0.00 | 0.00 | 0.00 | 34 | 1015.3 |
| 20260503184408 | 57 | 286 | 7.0 | 14.8 | 0.00 | 0.00 | 0.00 | 36 | 1015.2 |
| 20260503183908 | 57 | 306 | 8.7 | 10.4 | 0.00 | 0.00 | 0.00 | 33 | 1015.4 |
| 20260503183408 | 57 | 288 | 9.6 | 17.4 | 0.00 | 0.00 | 0.00 | 34 | 1015.5 |
| 20260503182908 | 57 | 259 | 7.8 | 13.0 | 0.00 | 0.00 | 0.00 | 33 | 1015.3 |
| 20260503182504 | 57 | 288 | 9.6 | 13.9 | 0.00 | 0.00 | 0.00 | 33 | 1015.5 |
| 20260503182408 | 57 | 288 | 9.6 | 13.9 | 0.00 | 0.00 | 0.00 | 33 | 1015.5 |
| 20260503181908 | 56 | 249 | 10.4 | 17.4 | 0.00 | 0.00 | 0.00 | 34 | 1015.4 |
| 20260503181408 | 56 | 289 | 9.6 | 17.4 | 0.00 | 0.00 | 0.00 | 31 | 1015.5 |
| 20260503180908 | 56 | 257 | 10.4 | 14.8 | 0.00 | 0.00 | 0.00 | 33 | 1015.5 |
| 20260503180408 | 56 | 273 | 13.0 | 17.4 | 0.00 | 0.00 | 0.00 | 37 | 1015.5 |
| 20260503175908 | 56 | 238 | 8.7 | 20.0 | 0.00 | 0.00 | 0.00 | 32 | 1015.7 |
| 20260503175408 | 56 | 256 | 7.8 | 16.5 | 0.00 | 0.00 | 0.00 | 40 | 1015.6 |
| 20260503174908 | 55 | 261 | 7.8 | 11.3 | 0.00 | 0.00 | 0.00 | 34 | 1015.7 |
| 20260503174408 | 55 | 239 | 9.6 | 14.8 | 0.00 | 0.00 | 0.00 | 39 | 1015.7 |
| 20260503173908 | 55 | 207 | 10.4 | 16.5 | 0.00 | 0.00 | 0.00 | 36 | 1015.7 |
| 20260503173408 | 55 | 270 | 10.4 | 13.9 | 0.00 | 0.00 | 0.00 | 37 | 1015.7 |
| 20260503172908 | 55 | 263 | 10.4 | 17.4 | 0.00 | 0.00 | 0.00 | 33 | 1015.8 |
| 20260503172408 | 55 | 269 | 7.8 | 18.2 | 0.00 | 0.00 | 0.00 | 39 | 1015.9 |
| 20260503171908 | 55 | 281 | 5.2 | 11.3 | 0.00 | 0.00 | 0.00 | 43 | 1015.9 |
| 20260503171408 | 54 | 321 | 7.8 | 9.6 | 0.00 | 0.00 | 0.00 | 37 | 1015.8 |
| 20260503170908 | 53 | 309 | 8.7 | 14.8 | 0.00 | 0.00 | 0.00 | 35 | 1015.9 |
| 20260503170409 | 53 | 288 | 7.8 | 19.1 | 0.00 | 0.00 | 0.00 | 40 | 1015.9 |
| 20260503150913 | 49 | 294 | 7.8 | 12.2 | 0.00 | 0.00 | 0.00 | 39 | 1017.1 |
| 20260503150408 | 49 | 309 | 8.7 | 10.4 | 0.00 | 0.00 | 0.00 | 42 | 1017.1 |
| 20260503131409 | 45 | 303 | 7.8 | 11.3 | 0.00 | 0.00 | 0.00 | 50 | 1017.4 |
| 20260503130911 | 45 | 294 | 8.7 | 13.9 | 0.00 | 0.00 | 0.00 | 49 | 1017.5 |
| 20260503130409 | 45 | 278 | 7.8 | 14.8 | 0.00 | 0.00 | 0.00 | 50 | 1017.5 |
| 20260503110411 | 38 | 274 | 0.9 | 2.6 | 0.00 | 0.00 | 0.00 | 67 | 1016.4 |